Location: *
(47.7167°N, 1.7333°W)
Time: 23:33:48
(UTC+00:00)

STARLINK-1271 - Pass Details

Date: 09 April 2020
Orbit: 548 x 551 km, 53.0° (Epoch: 30 May)

Event Time Altitude Azimuth Distance (km) Brightness Sun altitude
Rises 19:55:34 0° 296° (WNW) 2,702 9.4 -11.4°
Reaches altitude 10° 19:57:50 10° 292° (WNW) 1,808 7.8 -11.8°
Maximum altitude 20:01:49 53° 216° (SW) 671 4.1 -12.4°
Enters shadow 20:04:43 17° 144° (SE) 1,390 5.1 -12.8°
